DECAYED

STARLINK-1144, 44933 (Decayed)

Orbit data source: Space-Track

STARLINK-1144, 44933 was a payload satellite owned by SpaceX/Seattle (US) in LEO that was launched on Tue, 07 Jan 2020 UTC via an FALCON 9 launch vehicle from the Air Force Eastern Test Range (AFETR). Payload-class satellites include a variety of spacecraft equipped with specific instruments for various scientific and technological missions. These include communications satellites like Starlink; space stations such as the ISS; scientific satellites like the Hubble; Earth observation satellites from companies like Planet Labs, Umbra, and HawkEye 360; GPS; miniature CubeSats for education and research; and military/defense satellites.

Not visible in the next 10 days
Identifier
44933, 2020-001V
Orbit
Decayed
Country
Flag of USUS
Related business
Manufacturer
SpaceX/Seattle
Mission
Decayed Commercial Communications
Bus & Motor
STARLINK, Unknown motor
Mass
260 kg wet, ~248 kg dry
Launch date (UTC)
2020-01-07 (6 years ago)
Launch vehicle
FALCON 9
Launch site
Air Force Eastern Test Range (AFETR)
Object type
Payload
Rocket body
Debris
Shape & HBR
Box + 1 Pan, 10.1 m
Radar Cross Section
13.562 m², Large (>1 m²)

Expand to show TLE details & history
Last TLE update: 4 months ago

TLE from 4 months ago
0 STARLINK-1144
1 44933U 20001V   26045.06249604  .09131498  12349-4  49644-3 0  9992
2 44933  53.0203 330.3242 0006377 224.4044 135.6493 16.42239465339297
Epoch: 2026-02-14T01:29Z
TLE epoch observation values (Epoch: 2026-02-14T01:29:59.657Z)
Latitude
Longitude
163.73469°
Altitude
163.762 km
Speed
7.807 km/s
True Right ascension
22h 01m 17s
True Declination
0° 00' 00"
Sunlit
Object was in daylight at epoch
Visualization orbit readout
Latitude
Unknown
Longitude
Unknown
Altitude
Unknown
Speed
Unknown
Apparent Right ascension
Unknown
Apparent Declination
Unknown
Sunlit
N/A
Visualization observer readout
Local Sidereal Time
23:19:25
Azimuth
Unknown
Elevation
Unknown
Doppler factor
Unknown
Orbital elements
Apogee altitude
164.314 km
Perigee altitude
155.975 km
Semi-major axis
6,538.281 km
Eccentricity
0.00064
Inclination
53.0203°
RAAN
330.3242°
Arg. of periapsis
224.4044°
True anomaly
135.70035°
Mean anomaly
135.6493°
Eccentric anomaly
135.67483°
Mean motion
4.10533 °/min
Orbital period
87.69 mins
BSTAR
0.00049644
Loading maneuver chart data...
Computing Atmospheric mass density...

Documentation

Showing up to 5 results
|